Seattle, WA
on Sunday, February 3, 2013

Sunday
Previous Day Next Day
Daily Summary
 ActualAverageRecord
Temperature
Mean Temperature °F 43°F  
Max Temperature 48°F 49°F 63°F (1992)
Min Temperature 37°F 37°F 8°F (1950)
Degree Days
Heating Degree Days 22 22  
Month to date heating degree days 65 66  
Since 1 July heating degree days 2639 2715  
Cooling Degree Days 0 0  
Month to date cooling degree days 0 0  
Year to date cooling degree days 0 0  
Moisture
Dew Point 40°F   
Average Humidity 85    
Maximum Humidity 93    
Minimum Humidity 76    
Precipitation
Precipitation 0.09 in 0.14 in 1.29 in (1968)
Month to date precipitation 0.10 0.40  
Year to date precipitation 4.26 5.97  
Snow
Snow 0.00 in in 1.30 in (1949)
Month to date snowfall 0.0  
Since 1 July snowfall 0.6  
Snow Depth 0.00 in   
Wind
Wind Speed 6 mph   
Max Wind Speed 12 mph   
Max Gust Speed 14 mph   
Visibility 7 miles   
Events Fog , Rain   

Key: T is trace of precipitation, MM is missing value
Source: NWS Daily Summary
Time(PST)TemperatureDew PointHumidity Pressure Visibility Wind DirectionWind SpeedGust SpeedPrecipitationEvents Conditions
12:53 AM 37.9°F 36.0°F 93% 30.31 in 0.1 miles ESE 6.9 mph - N/A Fog Fog
1:53 AM 37.9°F 36.0°F 93% 30.31 in 0.1 miles SE 6.9 mph - N/A Fog Fog
2:43 AM 39.2°F 37.4°F 93% 30.28 in 2.0 miles Calm Calm - N/A   Overcast
2:53 AM 39.0°F 37.9°F 96% 30.30 in 2.0 miles ESE 6.9 mph - N/A   Overcast
3:53 AM 39.0°F 37.0°F 93% 30.29 in 2.0 miles SE 8.1 mph - N/A   Overcast
4:53 AM 41.0°F 37.9°F 89% 30.31 in 2.0 miles ESE 6.9 mph - N/A   Overcast
5:00 AM 41.0°F 37.4°F 87% 30.28 in 6.0 miles ESE 6.9 mph - N/A   Overcast
5:25 AM 39.2°F 37.4°F 93% 30.28 in 10.0 miles SE 5.8 mph - N/A   Overcast
5:45 AM 39.2°F 37.4°F 93% 30.27 in 10.0 miles SSE 8.1 mph - N/A   Overcast
5:53 AM 39.9°F 37.0°F 89% 30.30 in 10.0 miles SE 4.6 mph - N/A   Overcast
6:17 AM 41.0°F 37.4°F 87% 30.28 in 10.0 miles SSE 8.1 mph - N/A   Overcast
6:53 AM 41.0°F 37.9°F 89% 30.32 in 5.0 miles SSE 5.8 mph - 0.00 in Rain Light Rain
7:45 AM 41.0°F 39.2°F 93% 30.29 in 2.0 miles South 3.5 mph - 0.00 in Rain Light Rain
7:53 AM 41.0°F 39.0°F 93% 30.32 in 2.0 miles SSE 4.6 mph - 0.01 in Rain Light Rain
8:08 AM 41.0°F 39.2°F 93% 30.29 in 2.0 miles SE 5.8 mph - 0.00 in Rain Light Rain
8:31 AM 42.8°F 39.2°F 87% 30.29 in 3.0 miles SSE 6.9 mph - 0.01 in   Overcast
8:53 AM 43.0°F 39.0°F 86% 30.32 in 9.0 miles SSE 8.1 mph - 0.01 in   Overcast
9:53 AM 44.1°F 39.9°F 85% 30.33 in 10.0 miles SSE 5.8 mph - N/A   Overcast
10:04 AM 44.6°F 39.2°F 81% 30.29 in 10.0 miles SSE 6.9 mph - N/A   Overcast
10:53 AM 44.1°F 39.9°F 85% 30.32 in 10.0 miles South 5.8 mph - N/A   Overcast
11:37 AM 44.6°F 39.2°F 81% 30.30 in 10.0 miles South 3.5 mph - N/A   Overcast
11:53 AM 46.0°F 41.0°F 83% 30.32 in 10.0 miles Calm Calm - N/A   Overcast
12:53 PM 46.0°F 39.9°F 79% 30.31 in 10.0 miles SSW 4.6 mph - N/A   Overcast
1:53 PM 46.9°F 41.0°F 80% 30.28 in 10.0 miles South 4.6 mph - N/A   Overcast
2:53 PM 48.0°F 41.0°F 77% 30.27 in 10.0 miles South 6.9 mph - N/A   Overcast
3:16 PM 48.2°F 41.0°F 76% 30.25 in 10.0 miles South 8.1 mph - N/A   Overcast
3:53 PM 46.9°F 41.0°F 80% 30.28 in 10.0 miles South 6.9 mph - N/A   Overcast
4:53 PM 46.9°F 41.0°F 80% 30.27 in 10.0 miles South 5.8 mph - N/A   Overcast
5:53 PM 46.0°F 42.1°F 86% 30.27 in 7.0 miles South 9.2 mph - 0.01 in Rain Light Rain
6:53 PM 45.0°F 42.1°F 90% 30.27 in 6.0 miles South 6.9 mph - 0.04 in Rain Light Rain
7:53 PM 44.6°F 42.8°F 93% 30.22 in 7.0 miles South 8.1 mph - N/A Rain Light Rain
8:27 PM 44.6°F 42.8°F 93% 30.21 in 7.0 miles South 9.2 mph - 0.00 in Rain Light Rain
8:53 PM 45.0°F 42.1°F 90% 30.25 in 8.0 miles South 8.1 mph - 0.00 in Rain Light Rain
9:43 PM 44.6°F 42.8°F 93% 30.22 in 10.0 miles SSW 9.2 mph - 0.00 in   Overcast
9:53 PM 45.0°F 42.1°F 90% 30.25 in 10.0 miles SSW 6.9 mph - 0.00 in   Overcast
10:34 PM 44.6°F 42.8°F 93% 30.21 in 10.0 miles SSW 8.1 mph - N/A   Overcast
10:53 PM 45.0°F 42.1°F 90% 30.25 in 10.0 miles SSW 9.2 mph - N/A   Overcast
11:11 PM 44.6°F 42.8°F 93% 30.22 in 10.0 miles SSW 8.1 mph - N/A   Overcast
11:53 PM 45.0°F 42.1°F 90% 30.24 in 10.0 miles SW 5.8 mph - N/A   Overcast
Moon Phase
Feb. 03 Feb. 10 Feb. 17 Feb. 25 Mar. 04
Sunrise:07:32 AM (PST) Moon Rise:01:07 AM (PST)2/3
Sunset:05:14 PM (PST) Moon Set:10:52 AM (PST)2/3

Copyright © 2014 The Weather Underground, Inc.